Location: Barrialito
(10.3588°N, 66.9747°W)
Time: 16:38:20
(UTC+00:00)

Cosmos 1862 Rocket - Pass Details

Date: 11 July 2022
Orbit: 603 x 633 km, 82.5° (Epoch: 13 August)

Event Time Altitude Azimuth Distance (km) Brightness Sun altitude
Rises 07:34:42 0° 13° (NNE) 2,849 7.6 -35.0°
Reaches altitude 10° 07:37:08 10° 25° (NNE) 1,950 6.7 -34.5°
Enters shadow 07:39:18 22° 49° (NE) 1,318 5.8 -34.1°
